Tracking 21611 objects as of 21-Oct-2020
HD Live streaming from Space Station
objects crossing your sky now

COSMOS 592

Track COSMOS 592 now!
10-day predictions
COSMOS 592 is classified as:


NORAD ID: 6849
Int'l Code: 1973-069E
Perigee: 1,336.6 km
Apogee: 1,491.7 km
Inclination: 74.0 °
Period: 113.9 minutes
Semi major axis: 7785 km
RCS: 0.7024 m2 (medium)
Launch date: October 2, 1973
Source: Commonwealth of Independent States (former USSR) (CIS)
Launch site: PLESETSK MISSILE AND SPACE COMPLEX (PKMTR)
aabbcc
Your satellite tracking list
Your tracking list is empty




NASA's NSSDC Master Catalog

Two Line Element Set (TLE):
1  6849U 73069E   20294.96061208 -.00000018 +00000-0 -57079-5 0  9995
2  6849 073.9984 275.2141 0099601 294.6861 064.3852 12.63862298170959
Source of the keplerian elements: AFSPC